Tracking 25723 objects as of 27-Jun-2022
HD Live streaming from Space Station
objects crossing your sky now

DMSP 5D-2 F13 DEB

Track DMSP 5D-2 F13 DEB now!
10-day predictions


NORAD ID: 44584
Int'l Code: 1995-015KB
Perigee: 777.5 km
Apogee: 800.7 km
Inclination: 98.7 °
Period: 100.5 minutes
Semi major axis: 7160 km
RCS: Unknown
Launch date: March 24, 1995
Source: United States (US)
Launch site: AIR FORCE WESTERN TEST RANGE (AFWTR)

Note: This is SATELLITE DEBRIS
aabbcc
Your satellite tracking list
Your tracking list is empty




NASA's NSSDC Master Catalog

Two Line Element Set (TLE):
1 44584U 95015KB  22177.35145867  .00007983  00000-0  29304-2 0  9990
2 44584  98.7096 202.5276 0016152 251.7899 121.1626 14.32924281284229
Source of the keplerian elements: AFSPC